Weather

Rainfall Maps have ended for the season and will begin again on May 1st.

DAILY 7 DAY TOTAL
onrain

Note: Some stations are located near irrigated fields and may also report irrigation

Alliston Mount Forest Blyth Guelph Grand Bend Strathroy Woodstock Belmont Simcoe Leamington Chatham West Lorne






Leamington-Base - Historical Weather Data
Date Max Temp (°C) Min Temp (°C) Avg Temp (°C) Rain (mm) 7Day Rain(mm) Total Rain(mm) Avg RH (%)
5/24/2024 28.7 12.6 21.0 0.0 8.2 37.8 54.4
5/23/2024 27.9 13.1 21.9 0.0 13.4 37.8 50.4
5/22/2024 30.5 20.7 25.6 0.0 13.4 37.8 58.4
5/21/2024 31.8 17.7 24.3 0.0 13.4 37.8 68.3
5/20/2024 31.6 15.1 22.7 8.2 13.4 37.8 70.9
5/19/2024 29.1 11.2 20.8 0.0 7.2 29.6 74.1
5/18/2024 20.7 13.5 16.0 0.0 7.2 29.6 92.0
5/17/2024 20.0 14.9 16.4 5.2 18.4 29.6 92.6
5/16/2024 21.8 9.5 16.1 0.0 13.2 24.4 74.8
5/15/2024 22.4 11.6 15.4 0.0 18.4 24.4 73.7
5/14/2024 23.1 12.0 17.6 0.0 18.6 24.4 69.0
5/13/2024 27.7 13.5 20.2 2.0 20.8 24.4 59.2
5/12/2024 19.1 6.9 12.8 0.0 18.8 22.4 73.0
5/11/2024 15.2 10.1 11.8 11.2 18.8 22.4 81.0
5/10/2024 18.7 8.4 12.8 0.0 7.6 11.2 65.6
5/9/2024 12.5 9.4 10.8 5.2 11.2 11.2 84.0
5/8/2024 26.3 10.5 18.9 0.2 6.0 6.0 66.0
5/7/2024 18.4 6.6 12.9 2.2 5.8 5.8 69.5
5/6/2024 18.7 8.3 13.2 0.0 11.4 3.6 58.5
5/5/2024 23.5 9.6 16.2 0.0 25.6 3.6 83.2
5/4/2024 19.6 12.0 15.4 0.0 39.8 3.6 87.5
5/3/2024 17.0 13.0 14.7 3.6 49.2 3.6 81.7
5/2/2024 18.7 8.9 14.9 0.0 45.6 0.0 63.6
5/1/2024 26.1 7.6 17.1 0.0 45.6 0.0 66.9